Delta Virtual Airport Information Service

Cleveland Hopkins International Airport

ICAO: KCLE Country: United States
Latitude: 41.4103 Longitude: -81.8539
Latest Arrival : NKS1090 (2) (KLAS-KCLE) Latest Departure : NKS1169 (KCLE-KLAS)


WX CaptureLIVE
Data provided by noaa.gov | Fetched at 03:34:48

METAR : KCLE 030851Z 28005KT 10SM FEW025 BKN180 02/M02 A3002 RMK AO2 SLP186 T00171022 53009 $

TAF : KCLE 030852Z 0309/0412 VRB04KT P6SM BKN100 FM031200 28006KT P6SM VCSH OVC030 FM031400 28005KT 6SM -RASN BR OVC025 FM031800 VRB03KT P6SM BKN025 FM040000 VRB03KT P6SM SCT030 FM040600 VRB03KT 6SM BR SCT008


Runway Data for KCLE
Data provided by openaviationdata.com

Runway ID Mag Var Hdg Length Elevation Surface ILS Freq ILS Id ILS Slope
06L -7 56° 8995 ft 791 ft Concrete 111.55 ILIZ 3
06R -7 56° 8993 ft 791 ft Concrete 111.9 ICLE 3
06C -7 56° 7091 ft 791 ft Concrete -- -- --
10 -7 100° 6008 ft 791 ft Asphalt -- -- --
24L -7 236° 8993 ft 791 ft Concrete 109.9 IHPI 3
24R -7 236° 8995 ft 791 ft Concrete 111.55 IPVY 3
24C -7 236° 7091 ft 791 ft Concrete -- -- --
28 -7 280° 6008 ft 791 ft Asphalt 110.7 IPXP 3

Cleveland Hopkins International Airport, United States
Use only for reference purposes



Not for navigational purposes.